Notices

What's New in latest Release from April 7th, 2021:

- Updated Glossary, including Speed of Maximum Gust, and Total Hourly Precipitation

- Updated national and regional climate services offices contacts and prices information

- Addition of station inventory lists for 1981-2010, 1971-2000, and 1961-1990 Normals.

If you haven't already, please take our survey and provide feedback about our website: https://eccc.sondage-survey.ca/f/LanguageSelection.aspx?s=442ca660-fcf1-47c0-95a9-59707d6fd709

Hourly Data Report for June 13, 2004

SHERBROOKE A
QUEBEC

45°26'00.000" N
71°41'00.000" W
241.40 m
7028124
71610
YSC

Download Data

Hourly Data (June 2004)
Hourly Data Report for June 13, 2004
TIME
LST
Temp Definition
°C
Dew Point Definition
°C
Rel Hum Definition
%
Precip. Amount Definition
mm

Wind Dir Definition
10's deg

Wind Spd Definition
km/h
Visibility Definition
km
Stn Press Definition
kPa
Hmdx Definition


Wind Chill Definition


Weather Definition


00:00 5.3 4.0 91   9 6 15.0 99.28      
01:00 3.7 2.3 91   9 4 15.0 99.26      
02:00 2.8 1.6 92   12 6 15.0 99.25      
03:00 2.4 1.3 92   9 6 15.0 99.24      
04:00 3.6 2.1 90   9 9 15.0 99.23      
05:00 5.6 3.4 86   8 6 15.0 99.25      
06:00 7.6 5.1 84   7 6 15.0 99.26      
07:00 11.9 6.9 71     0 24.1 99.25     Mostly Cloudy
08:00 15.5 9.1 66   6 4 24.1 99.20     Mainly Clear
09:00 19.2 9.6 54   23 9 24.1 99.16     Mainly Clear
10:00 20.8 9.2 47   20 15 24.1 99.13     Mainly Clear
11:00 22.3 8.7 42   23 11 24.1 99.06     Mostly Cloudy
12:00 22.8 7.9 38   23 19 24.1 99.00     Mostly Cloudy
13:00 23.4 9.0 40   19 15 24.1 98.97     Mainly Clear
14:00 24.7 9.1 37   22 7 24.1 98.89 26   Mostly Cloudy
15:00 23.6 8.8 39   23 9 24.1 98.84     Mostly Cloudy
16:00 24.7 8.3 35   23 20 24.1 98.76 25   Mostly Cloudy
17:00 23.4 10.1 43   22 6 15.0 98.69 25    
18:00 23.0 9.4 42   22 7 15.0 98.66      
19:00 20.5 9.2 48   17 7 15.0 98.61      
20:00 18.6 10.6 60   16 7 15.0 98.58      
21:00 17.0 10.5 66   17 7 15.0 98.58      
22:00 13.3 10.6 84   6 4 15.0 98.59      
23:00 14.1 10.6 79   14 7 15.0 98.58      

Notes on Data Quality.

Legend

  • E = Estimated
  • M = Missing
  • NA = Not Available*
  • [empty] = Indicates an unobserved value
Date modified: